Location: Schommer Observatory
(40.5200°N, 74.4500°W)
Time: 07:53:34
(UTC-04:00)

ISS - Pass Details

Date: 20 May 2018
Orbit: 402 x 407 km, 51.6° (Epoch: 26 May)

Event Time Altitude Azimuth Distance (km) Brightness Sun altitude
Exits shadow 00:16:20 15° 7° (N) 1,192 -0.7 -28.9°
Drops below altitude 10° 00:17:31 10° 27° (NNE) 1,458 -0.4 -28.9°
Sets 00:20:06 0° 48° (NE) 2,319 0.4 -29.0°
